When you browse on this site, cookies collect data to enhance your experience and personalize the content and advertising you see.
Visit our Privacy Policy to learn more. By continuing to use the site, you agree to this use of cookies and data.
  • In Hungary
  • List of Countries
  • For 7 days
  • Water Temperature
  • Satellite Maps
  • Weather Map
  • News
  • Weather Widgets
  • user-avatar
    Login

    Hourly Weather Luka

    Today, 17 December, Monday

    Time Temperature Precipitation Wind Pressure Humidity
    00:00 -4°C° 0 mm 3 mps 753 mmHg 92%
    01:00 -3°C° 0 mm 2 mps 753 mmHg 93%
    02:00 -3°C° 0 mm 2 mps 753 mmHg 93%
    03:00 -3°C° 0 mm 2 mps 753 mmHg 93%
    04:00 -4°C° 0 mm 2 mps 753 mmHg 93%
    05:00 -4°C° 0 mm 2 mps 753 mmHg 93%
    06:00 -4°C° 0 mm 2 mps 753 mmHg 93%
    07:00 -4°C° 0 mm 2 mps 753 mmHg 93%
    08:00 -3°C° 0 mm 2 mps 753 mmHg 91%
    09:00 -3°C° 0 mm 2 mps 754 mmHg 90%
    10:00 -3°C° 0 mm 2 mps 754 mmHg 89%
    11:00 0°C° 0 mm 1 mps 754 mmHg 88%
    12:00 0°C° 0 mm 1 mps 754 mmHg 87%
    13:00 0°C° 0 mm 1 mps 754 mmHg 86%
    14:00 0°C° 0 mm 1 mps 754 mmHg 88%
    15:00 0°C° 0 mm 1 mps 755 mmHg 90%
    16:00 -1°C° 0 mm 1 mps 755 mmHg 92%
    17:00 -1°C° 0 mm 1 mps 755 mmHg 92%
    18:00 -1°C° 0 mm 1 mps 755 mmHg 93%
    19:00 -2°C° 0 mm 0 mps 756 mmHg 93%
    20:00 -2°C° 0 mm 0 mps 756 mmHg 93%
    21:00 -2°C° 0 mm 0 mps 756 mmHg 93%
    22:00 -2°C° 0 mm 0 mps 757 mmHg 93%
    23:00 -3°C° 0 mm 0 mps 757 mmHg 93%

    Tomorrow, 18 December, Tuesday

    Time Temperature Precipitation Wind Pressure Humidity
    00:00 -3°C° 0 mm 0 mps 757 mmHg 93%
    01:00 -3°C° 0 mm 0 mps 757 mmHg 93%
    02:00 -2°C° 0 mm 1 mps 758 mmHg 93%
    03:00 -3°C° 0 mm 1 mps 758 mmHg 93%
    04:00 -3°C° 0 mm 1 mps 758 mmHg 93%
    05:00 -3°C° 0 mm 1 mps 758 mmHg 93%
    06:00 -3°C° 0 mm 1 mps 758 mmHg 93%
    07:00 -3°C° 0 mm 1 mps 758 mmHg 92%
    08:00 -3°C° 0 mm 1 mps 759 mmHg 91%
    09:00 -2°C° 0 mm 1 mps 759 mmHg 89%
    10:00 -2°C° 0 mm 1 mps 759 mmHg 88%
    11:00 -1°C° 0 mm 1 mps 759 mmHg 87%
    12:00 -1°C° 0 mm 1 mps 759 mmHg 86%
    13:00 -1°C° 0 mm 1 mps 759 mmHg 84%
    14:00 -1°C° 0 mm 1 mps 759 mmHg 87%
    15:00 -2°C° 0 mm 1 mps 759 mmHg 89%
    16:00 -5°C° 0 mm 2 mps 759 mmHg 91%
    17:00 -5°C° 0 mm 2 mps 759 mmHg 91%
    18:00 -5°C° 0 mm 2 mps 759 mmHg 91%
    19:00 -5°C° 0 mm 2 mps 759 mmHg 91%
    20:00 -5°C° 0 mm 2 mps 759 mmHg 92%
    21:00 -5°C° 0 mm 2 mps 759 mmHg 92%
    22:00 -5°C° 0 mm 2 mps 759 mmHg 92%
    23:00 -5°C° 0 mm 2 mps 759 mmHg 92%

    Day after tomorrow, 19 December, Wednesday

    Time Temperature Precipitation Wind Pressure Humidity
    00:00 -5°C° 0 mm 2 mps 759 mmHg 91%
    01:00 -6°C° 0 mm 3 mps 759 mmHg 91%
    02:00 -6°C° 0 mm 3 mps 759 mmHg 92%
    03:00 -7°C° 0 mm 3 mps 759 mmHg 92%
    04:00 -7°C° 0 mm 3 mps 759 mmHg 93%
    05:00 -7°C° 0 mm 3 mps 759 mmHg 93%
    06:00 -7°C° 0 mm 3 mps 759 mmHg 93%
    07:00 -7°C° 0 mm 3 mps 759 mmHg 93%
    08:00 -7°C° 0 mm 3 mps 759 mmHg 92%
    09:00 -6°C° 0 mm 3 mps 759 mmHg 90%
    10:00 -7°C° 0 mm 4 mps 759 mmHg 89%
    11:00 -5°C° 0 mm 4 mps 759 mmHg 88%
    12:00 -5°C° 0 mm 4 mps 759 mmHg 87%
    13:00 -5°C° 0 mm 4 mps 759 mmHg 86%
    14:00 -5°C° 0 mm 4 mps 758 mmHg 87%
    15:00 -5°C° 0 mm 4 mps 758 mmHg 88%
    16:00 -7°C° 0 mm 4 mps 758 mmHg 89%
    17:00 -7°C° 0 mm 5 mps 758 mmHg 88%
    18:00 -7°C° 0 mm 5 mps 758 mmHg 87%
    19:00 -7°C° 0 mm 5 mps 758 mmHg 87%
    20:00 -7°C° 0 mm 5 mps 758 mmHg 87%
    21:00 -7°C° 0 mm 5 mps 757 mmHg 88%
    22:00 -7°C° 0 mm 5 mps 757 mmHg 88%
    23:00 -7°C° 0 mm 5 mps 757 mmHg 88%

    20 December, Thursday

    Time Temperature Precipitation Wind Pressure Humidity
    00:00 -7°C° 0 mm 5 mps 757 mmHg 88%
    01:00 -7°C° 0 mm 5 mps 757 mmHg 89%
    02:00 -7°C° 0 mm 5 mps 757 mmHg 88%
    03:00 -8°C° 0 mm 5 mps 756 mmHg 88%
    04:00 -8°C° 0 mm 5 mps 756 mmHg 88%
    05:00 -8°C° 0 mm 5 mps 756 mmHg 88%
    06:00 -8°C° 0 mm 5 mps 756 mmHg 88%
    07:00 -8°C° 0 mm 5 mps 756 mmHg 89%
    08:00 -10°C° 0 mm 5 mps 756 mmHg 88%
    09:00 -10°C° 0 mm 5 mps 756 mmHg 86%
    10:00 -10°C° 0 mm 5 mps 756 mmHg 85%
    11:00 -10°C° 0 mm 5 mps 756 mmHg 84%
    12:00 -8°C° 0 mm 5 mps 755 mmHg 83%
    13:00 -8°C° 0 mm 4 mps 755 mmHg 82%
    14:00 -8°C° 0 mm 4 mps 755 mmHg 83%
    15:00 -9°C° 0 mm 4 mps 755 mmHg 83%
    16:00 -9°C° 0 mm 4 mps 755 mmHg 84%
    17:00 -9°C° 0 mm 4 mps 755 mmHg 84%
    18:00 -10°C° 0 mm 5 mps 755 mmHg 85%
    19:00 -10°C° 0 mm 5 mps 755 mmHg 85%
    20:00 -10°C° 0 mm 5 mps 755 mmHg 86%
    21:00 -9°C° 0 mm 4 mps 755 mmHg 86%
    22:00 -9°C° 0 mm 4 mps 755 mmHg 87%
    23:00 -9°C° 0 mm 4 mps 755 mmHg 87%

    21 December, Friday

    Time Temperature Precipitation Wind Pressure Humidity
    00:00 -9°C° 0 mm 4 mps 754 mmHg 88%
    01:00 -9°C° 0 mm 4 mps 754 mmHg 89%
    02:00 -9°C° 0.1 mm 4 mps 754 mmHg 89%
    03:00 -8°C° 0.1 mm 4 mps 754 mmHg 90%
    04:00 -8°C° 0.1 mm 4 mps 754 mmHg 90%
    05:00 -8°C° 0.1 mm 4 mps 753 mmHg 91%
    06:00 -8°C° 0.1 mm 4 mps 753 mmHg 91%
    07:00 -7°C° 0.1 mm 3 mps 753 mmHg 91%
    08:00 -7°C° 0.1 mm 3 mps 753 mmHg 91%
    09:00 -7°C° 0.1 mm 4 mps 753 mmHg 90%
    10:00 -7°C° 0.1 mm 4 mps 753 mmHg 90%
    11:00 -6°C° 0.1 mm 3 mps 753 mmHg 89%
    12:00 -6°C° 0.1 mm 3 mps 753 mmHg 89%
    13:00 -5°C° 0.1 mm 3 mps 753 mmHg 88%
    14:00 -5°C° 0.1 mm 3 mps 753 mmHg 89%
    15:00 -5°C° 0.1 mm 3 mps 753 mmHg 90%
    16:00 -5°C° 0.1 mm 3 mps 753 mmHg 91%
    17:00 -5°C° 0.1 mm 3 mps 753 mmHg 91%
    18:00 -5°C° 0.1 mm 3 mps 753 mmHg 92%
    19:00 -5°C° 0.1 mm 3 mps 753 mmHg 92%
    20:00 -5°C° 0.1 mm 3 mps 753 mmHg 92%
    21:00 -5°C° 0.1 mm 3 mps 753 mmHg 93%
    22:00 -5°C° 0.1 mm 3 mps 753 mmHg 93%
    23:00 -5°C° 0.1 mm 3 mps 753 mmHg 93%

    22 December, Saturday

    Time Temperature Precipitation Wind Pressure Humidity
    00:00 -5°C° 0.1 mm 3 mps 753 mmHg 93%
    01:00 -4°C° 0.1 mm 3 mps 753 mmHg 93%
    02:00 -4°C° 0 mm 3 mps 752 mmHg 93%
    03:00 -4°C° 0 mm 3 mps 752 mmHg 93%
    04:00 -4°C° 0 mm 3 mps 752 mmHg 93%
    05:00 -4°C° 0.1 mm 3 mps 752 mmHg 93%
    06:00 -4°C° 0.1 mm 3 mps 752 mmHg 93%
    07:00 -4°C° 0.1 mm 3 mps 752 mmHg 93%
    08:00 -4°C° 0.1 mm 4 mps 753 mmHg 92%
    09:00 -4°C° 0.1 mm 4 mps 753 mmHg 92%
    10:00 -4°C° 0.1 mm 4 mps 753 mmHg 91%
    11:00 -4°C° 0 mm 4 mps 753 mmHg 91%
    12:00 -4°C° 0 mm 4 mps 753 mmHg 91%
    13:00 -2°C° 0 mm 3 mps 753 mmHg 91%
    14:00 -2°C° 0.1 mm 3 mps 753 mmHg 92%
    15:00 -4°C° 0.1 mm 3 mps 754 mmHg 92%
    16:00 -4°C° 0.1 mm 3 mps 754 mmHg 93%
    17:00 -4°C° 0.1 mm 3 mps 754 mmHg 93%
    18:00 -2°C° 0.1 mm 3 mps 754 mmHg 94%
    19:00 -2°C° 0.1 mm 3 mps 755 mmHg 94%
    20:00 -2°C° 0.1 mm 3 mps 755 mmHg 94%
    21:00 -2°C° 0.1 mm 3 mps 755 mmHg 95%
    22:00 -2°C° 0.1 mm 3 mps 756 mmHg 95%
    23:00 -2°C° 0.1 mm 3 mps 756 mmHg 95%
    Show more